Meteo pe oră la Dzial

Astăzi, 5 Martie, Vineri

Timp Temperatura Precipitaţii Vânt Presiune Umiditate
00:00 +5°C° 0.6 mm 1 m/s 701 mmHg 95%
01:00 +4°C° 0 mm 2 m/s 701 mmHg 96%
02:00 +3°C° 0.6 mm 2 m/s 700 mmHg 96%
03:00 +2°C° 0.6 mm 2 m/s 700 mmHg 97%
04:00 +2°C° 0.6 mm 2 m/s 700 mmHg 97%
05:00 +1°C° 0.5 mm 2 m/s 700 mmHg 97%
06:00 -1°C° 0.5 mm 2 m/s 700 mmHg 97%
07:00 -1°C° 0.5 mm 2 m/s 700 mmHg 97%
08:00 -1°C° 0.7 mm 2 m/s 701 mmHg 96%
09:00 -1°C° 0.7 mm 2 m/s 701 mmHg 95%
10:00 -1°C° 0.7 mm 2 m/s 701 mmHg 94%
11:00 -1°C° 0.9 mm 2 m/s 702 mmHg 94%
12:00 -2°C° 0.9 mm 3 m/s 702 mmHg 93%
13:00 -2°C° 0.9 mm 3 m/s 703 mmHg 93%
14:00 -2°C° 0.5 mm 3 m/s 703 mmHg 92%
15:00 -2°C° 0.5 mm 3 m/s 704 mmHg 91%
16:00 -4°C° 0.5 mm 3 m/s 704 mmHg 90%
17:00 -4°C° 0.3 mm 3 m/s 705 mmHg 90%
18:00 -4°C° 0.3 mm 2 m/s 706 mmHg 91%
19:00 -5°C° 0.3 mm 2 m/s 706 mmHg 91%
20:00 -6°C° 0.1 mm 2 m/s 707 mmHg 91%
21:00 -4°C° 0.1 mm 1 m/s 707 mmHg 90%
22:00 -6°C° 0.1 mm 1 m/s 708 mmHg 90%
23:00 -6°C° 0 mm 1 m/s 708 mmHg 89%

Mâine, 6 Martie, Sâmbătă

Timp Temperatura Precipitaţii Vânt Presiune Umiditate
00:00 -6°C° 0 mm 1 m/s 709 mmHg 88%
01:00 -6°C° 0 mm 1 m/s 709 mmHg 87%
02:00 -6°C° 0 mm 1 m/s 709 mmHg 88%
03:00 -6°C° 0 mm 1 m/s 709 mmHg 89%
04:00 -6°C° 0 mm 1 m/s 709 mmHg 90%
05:00 -6°C° 0 mm 1 m/s 710 mmHg 90%
06:00 -6°C° 0 mm 1 m/s 711 mmHg 90%
07:00 -6°C° 0 mm 1 m/s 711 mmHg 90%
08:00 -6°C° 0 mm 2 m/s 712 mmHg 84%
09:00 -4°C° 0 mm 2 m/s 712 mmHg 77%
10:00 -3°C° 0 mm 2 m/s 712 mmHg 71%
11:00 -3°C° 0 mm 2 m/s 712 mmHg 68%
12:00 -2°C° 0 mm 2 m/s 712 mmHg 65%
13:00 -2°C° 0 mm 2 m/s 712 mmHg 62%
14:00 -2°C° 0 mm 2 m/s 712 mmHg 64%
15:00 -2°C° 0 mm 2 m/s 712 mmHg 65%
16:00 -2°C° 0 mm 2 m/s 712 mmHg 67%
17:00 -3°C° 0 mm 2 m/s 712 mmHg 72%
18:00 -3°C° 0 mm 1 m/s 711 mmHg 77%
19:00 -4°C° 0 mm 1 m/s 711 mmHg 83%
20:00 -4°C° 0 mm 1 m/s 711 mmHg 82%
21:00 -4°C° 0 mm 1 m/s 711 mmHg 81%
22:00 -4°C° 0 mm 1 m/s 711 mmHg 80%
23:00 -4°C° 0 mm 1 m/s 711 mmHg 79%

Poimâine, 7 Martie, Duminică

Timp Temperatura Precipitaţii Vânt Presiune Umiditate
00:00 -4°C° 0 mm 1 m/s 711 mmHg 78%
01:00 -4°C° 0 mm 1 m/s 710 mmHg 77%
02:00 -6°C° 0 mm 2 m/s 710 mmHg 77%
03:00 -7°C° 0 mm 2 m/s 710 mmHg 77%
04:00 -7°C° 0 mm 2 m/s 709 mmHg 77%
05:00 -6°C° 0 mm 2 m/s 709 mmHg 76%
06:00 -6°C° 0 mm 2 m/s 709 mmHg 75%
07:00 -6°C° 0 mm 2 m/s 709 mmHg 74%
08:00 -4°C° 0 mm 2 m/s 709 mmHg 69%
09:00 -2°C° 0 mm 3 m/s 709 mmHg 63%
10:00 0°C° 0 mm 3 m/s 709 mmHg 57%
11:00 0°C° 0 mm 3 m/s 708 mmHg 56%
12:00 +1°C° 0 mm 3 m/s 708 mmHg 55%
13:00 +2°C° 0 mm 3 m/s 708 mmHg 54%
14:00 +2°C° 0 mm 3 m/s 707 mmHg 56%
15:00 +2°C° 0 mm 2 m/s 706 mmHg 58%
16:00 +2°C° 0 mm 2 m/s 705 mmHg 59%
17:00 +1°C° 0 mm 2 m/s 705 mmHg 64%
18:00 -2°C° 0 mm 2 m/s 705 mmHg 69%
19:00 -4°C° 0 mm 2 m/s 704 mmHg 74%
20:00 -4°C° 0 mm 2 m/s 704 mmHg 74%
21:00 -4°C° 0 mm 2 m/s 704 mmHg 74%
22:00 -4°C° 0 mm 2 m/s 704 mmHg 75%
23:00 -3°C° 0 mm 1 m/s 703 mmHg 75%

8 Martie, Luni

Timp Temperatura Precipitaţii Vânt Presiune Umiditate
00:00 -3°C° 0 mm 1 m/s 703 mmHg 76%
01:00 -3°C° 0 mm 1 m/s 703 mmHg 76%
02:00 -3°C° 0 mm 1 m/s 703 mmHg 78%
03:00 -3°C° 0 mm 1 m/s 702 mmHg 80%
04:00 -3°C° 0 mm 1 m/s 702 mmHg 81%
05:00 -3°C° 0 mm 1 m/s 702 mmHg 82%
06:00 -3°C° 0 mm 1 m/s 702 mmHg 83%
07:00 -3°C° 0 mm 1 m/s 702 mmHg 85%
08:00 -4°C° 0 mm 2 m/s 702 mmHg 81%
09:00 -2°C° 0 mm 2 m/s 703 mmHg 77%
10:00 -1°C° 0 mm 2 m/s 703 mmHg 73%
11:00 -1°C° 0.1 mm 2 m/s 703 mmHg 74%
12:00 -1°C° 0.1 mm 3 m/s 703 mmHg 76%
13:00 0°C° 0.1 mm 3 m/s 703 mmHg 78%
14:00 -1°C° 0.2 mm 3 m/s 703 mmHg 82%
15:00 -1°C° 0.2 mm 3 m/s 703 mmHg 86%
16:00 -2°C° 0.2 mm 3 m/s 703 mmHg 90%
17:00 -2°C° 0.2 mm 2 m/s 703 mmHg 90%
18:00 -3°C° 0.2 mm 2 m/s 704 mmHg 91%
19:00 -4°C° 0.2 mm 2 m/s 704 mmHg 91%
20:00 -3°C° 0 mm 1 m/s 705 mmHg 90%
21:00 -3°C° 0 mm 1 m/s 705 mmHg 90%
22:00 -4°C° 0 mm 1 m/s 705 mmHg 89%
23:00 -4°C° 0 mm 1 m/s 705 mmHg 89%

9 Martie, Marţi

Timp Temperatura Precipitaţii Vânt Presiune Umiditate
00:00 -4°C° 0 mm 1 m/s 705 mmHg 90%
01:00 -6°C° 0 mm 0 m/s 705 mmHg 90%
02:00 -6°C° 0 mm 0 m/s 705 mmHg 91%
03:00 -6°C° 0 mm 0 m/s 705 mmHg 92%
04:00 -6°C° 0 mm 0 m/s 705 mmHg 93%
05:00 -6°C° 0 mm 0 m/s 705 mmHg 93%
06:00 -6°C° 0 mm 0 m/s 705 mmHg 92%
07:00 -6°C° 0 mm 0 m/s 706 mmHg 91%
08:00 -5°C° 0 mm 0 m/s 706 mmHg 83%
09:00 -3°C° 0 mm 1 m/s 706 mmHg 75%
10:00 -2°C° 0 mm 1 m/s 707 mmHg 66%
11:00 -1°C° 0 mm 1 m/s 707 mmHg 62%
12:00 0°C° 0 mm 1 m/s 707 mmHg 58%
13:00 0°C° 0 mm 1 m/s 707 mmHg 54%
14:00 0°C° 0 mm 1 m/s 707 mmHg 57%
15:00 0°C° 0 mm 1 m/s 706 mmHg 59%
16:00 -1°C° 0 mm 1 m/s 706 mmHg 62%
17:00 -2°C° 0 mm 1 m/s 706 mmHg 68%
18:00 -3°C° 0 mm 1 m/s 706 mmHg 74%
19:00 -3°C° 0 mm 1 m/s 706 mmHg 80%
20:00 -4°C° 0 mm 1 m/s 706 mmHg 80%
21:00 -5°C° 0 mm 0 m/s 706 mmHg 80%
22:00 -5°C° 0 mm 0 m/s 707 mmHg 81%
23:00 -5°C° 0 mm 0 m/s 706 mmHg 81%

10 Martie, Miercuri

Timp Temperatura Precipitaţii Vânt Presiune Umiditate
00:00 -6°C° 0 mm 0 m/s 706 mmHg 82%
01:00 -6°C° 0 mm 0 m/s 706 mmHg 83%
02:00 -6°C° 0 mm 0 m/s 706 mmHg 83%
03:00 -6°C° 0 mm 0 m/s 706 mmHg 83%
04:00 -6°C° 0 mm 0 m/s 706 mmHg 82%
05:00 -6°C° 0 mm 0 m/s 706 mmHg 80%
06:00 -6°C° 0 mm 0 m/s 706 mmHg 77%
07:00 -6°C° 0 mm 0 m/s 707 mmHg 75%
08:00 -3°C° 0 mm 1 m/s 707 mmHg 66%
09:00 -1°C° 0 mm 1 m/s 707 mmHg 57%
10:00 +1°C° 0 mm 1 m/s 707 mmHg 47%
11:00 +2°C° 0 mm 1 m/s 707 mmHg 47%
12:00 +3°C° 0 mm 1 m/s 707 mmHg 46%
13:00 +4°C° 0 mm 1 m/s 707 mmHg 45%
14:00 +4°C° 0 mm 1 m/s 707 mmHg 51%
15:00 +3°C° 0 mm 1 m/s 706 mmHg 56%
16:00 +3°C° 0 mm 1 m/s 706 mmHg 62%
17:00 +2°C° 0 mm 1 m/s 706 mmHg 69%
18:00 +1°C° 0 mm 1 m/s 705 mmHg 76%
19:00 -1°C° 0 mm 1 m/s 705 mmHg 82%
20:00 -3°C° 0 mm 2 m/s 705 mmHg 83%
21:00 -3°C° 0 mm 2 m/s 705 mmHg 84%
22:00 -3°C° 0 mm 2 m/s 705 mmHg 84%
23:00 -3°C° 0 mm 2 m/s 705 mmHg 84%
Arată mai mult

Formular de consimțământ

Meteoprog și furnizorii noștri de servicii pot stoca și accesa date personale, precum cookies, identificatori de dispozitiv sau alte tehnologii similare pe dispozitivul dumneavoastră și procesa astfel de date pentru a personaliza conținutul și reclamele, dar și pentru a oferi caracteristici de social media și pentru a analiza traficul.

  • Stocarea și/sau accesarea informațiilor pe dispozitivul dumneavoastră

    Cookies, identificatori de dispozitiv sau alte informații pot fi stocate sau accesate pe dispozitiv în scopurile indicate mai sus.

  • Reclame și conținut personalizat, evaluarea reclamelor și a conținutului, informații despre audiențe și dezvoltarea produselor

    Reclamele și conținutul pot fi personalizate pe baza unui profil. Pot fi adăugate date suplimentare pentru a personaliza mai bine reclamele și conținutul. Performanța reclamelor și conținutului poate fi măsurată. Pot fi obținute informații despre utilizatorii care au văzut reclamele și conținutul. Aceste date pot fi utilizate pentru a dezvolta sau îmbunătăți experiența utilizatorilor, sistemele și software-ul.

Dând clic pe ‘Sunt de acord’, permiteți utilizarea cookie-urilor menționate, a identificatorilor de dispozitiv, balizelor web sau altor tehnologii similare. Setările pot fi modificate din browser-ul dispozitivului dumneavoastră.

În anumite scopuri, interesele legitime pot prima asupra consimțământului. Puteți citi mai multe informații în acest sens în Politica privind Confidențialitatea Datelor și Cookie.